Miscellaneous Local Product
Issued by NWS Hastings, NE

Home | Current Version | Previous Version | Graphics & Text | Print | Product List | Glossary On
Versions: 1 2 3 4 5 6 7 8 9 10 11 12 13 14 15 16 17 18 19 20 21 22 23 24 25 26 27 28 29 30 31 32 33 34 35 36 37 38 39 40 41 42 43 44 45 46 47 48 49 50
769
AXUS43 KGID 130802
MISGRI

GID CWA HOURLY WEATHER ROUNDUP
NATIONAL WEATHER SERVICE HASTINGS NE
200 AM CST SAT FEB 13 2016

NOTE: "FAIR" INDICATES FEW OR NO CLOUDS BELOW 12,000 FEET WITH NO
SIGNIFICANT WEATHER AND/OR OBSTRUCTIONS TO VISIBILITY.

...SOUTH CENTRAL NEBRASKA...

CITY           SKY/WX    TMP DP  RH WIND       PRES   REMARKS
GRAND ISLAND   CLOUDY    16   9  74 E8        30.53F WCI   5
HASTINGS       CLOUDY    18  10  71 E8        30.49F WCI   8
KEARNEY        CLOUDY    19  14  79 SE12      30.47F WCI   7
ORD            CLOUDY    17  12  80 SE8       30.47F WCI   7
YORK           CLOUDY    16   9  73 E8        30.55F WCI   5
AURORA         CLOUDY    17   9  72 E9        30.53F WCI   5
LEXINGTON      CLOUDY    22  18  83 SE9       30.44F WCI  12
HOLDREGE       CLOUDY    18  15  86 SE8       30.46F WCI   8
HEBRON         CLOUDY    19  10  68 NE9       30.55F WCI   7

...NEBRASKA PANHANDLE...

CITY           SKY/WX    TMP DP  RH WIND       PRES   REMARKS
CHADRON        CLOUDY    34  30  85 S8        30.18F WCI  27
ALLIANCE       CLOUDY    30  29  96 S16       30.20F FOG     WCI  19
SCOTTSBLUFF    CLOUDY    33  30  88 SE12      30.19F WCI  24
SIDNEY         CLOUDY    29  29 100 S14       30.23F FOG     WCI  18

...WESTERN AND NORTH CENTRAL NEBRASKA...

CITY           SKY/WX    TMP DP  RH WIND       PRES   REMARKS
VALENTINE      CLOUDY    22  16  78 SE12      30.36F WCI  10
AINSWORTH      FLURRIES  20  15  80 SE12      30.38F WCI   8
ONEILL         CLOUDY    15   8  76 SE8       30.49F WCI   4
BROKEN BOW     CLOUDY    19  15  84 S13       30.43F WCI   6
IMPERIAL       CLOUDY    29  27  92 S18       30.33F WCI  16
NORTH PLATTE   CLOUDY    23  19  85 SE10      30.38F WCI  12
MCCOOK         FOG       25  24  96 SE13      30.41F VSB 3/4 WCI  14

...EASTERN NEBRASKA...

CITY           SKY/WX    TMP DP  RH WIND       PRES   REMARKS
NORFOLK        CLOUDY    12   3  67 E7        30.54F WCI   1
SO SIOUX CITY  CLOUDY     6  -6  57 NE9       30.64S WCI  -8
TEKAMAH        CLOUDY     7  -3  64 N10       30.63F WCI  -8
COLUMBUS       CLOUDY    12   0  57 E8        30.58F WCI   1
ALBION         CLOUDY    15   7  71 SE7       30.54S WCI   5
OMAHA EPPLEY   CLOUDY    11   0  61 N8        30.64F WCI  -1
OFFUTT AFB     MOCLDY    12   1  60 NE9       30.63S WCI   0
MILLARD        CLOUDY    14   0  54 CALM      30.62F
LINCOLN        CLOUDY    15   5  64 NE8       30.61F WCI   4
NEBRASKA CITY  CLOUDY    14   2  58 NE8       30.61F WCI   3
BEATRICE       CLOUDY    17   8  69 NE6       30.59F WCI   8
FALLS CITY     CLOUDY    16   2  54 NE7       30.62F WCI   6

...NORTHERN KANSAS...

CITY           SKY/WX    TMP DP  RH WIND       PRES   REMARKS
GOODLAND       CLOUDY    27  25  92 S16       30.33F WCI  15
HILL CITY      CLOUDY    25  19  78 E9        30.46F WCI  15
NORTON         CLOUDY    23  16  74 E9        30.44F WCI  13
PHILLIPSBURG   CLOUDY    23  18  80 CALM      30.50F
SMITH CENTER   CLEAR     19  16  86 CALM      30.51F
BELOIT         MOCLDY    21  16  79 E7        30.54S WCI  13
HAYS           CLOUDY    23  12  63 E7        30.48S WCI  15
RUSSELL        CLEAR     21  16  81 E7        30.48F WCI  12
CONCORDIA      CLOUDY    21  13  71 E9        30.54F WCI  11
SALINA         CLOUDY    26  14  60 NE7       30.55S WCI  18
TOPEKA         CLOUDY    20   0  41 N8        30.61F WCI  10



USA.gov is the U.S. government's official web portal to all federal, state and local government web resources and services.